| time (UTC) | temp C | wind direction | speed KPH | gust KPH | rain 1hr cm | rain 24hr cm | rain mn cm | humidity % | barometer mb |
| 20260505212009 | 9 | 360 | 4.8 | 16.1 | 0.00 | 0.00 | 0.00 | 78 | 1014.3 |
| 20260505211528 | 9 | 360 | 6.4 | 19.3 | 0.00 | 0.00 | 0.00 | 79 | 1014.3 |
| 20260505211012 | 9 | 360 | 8.0 | 19.3 | 0.00 | 0.00 | 0.00 | 80 | 1014.2 |
| 20260505210510 | 10 | 360 | 6.4 | 16.1 | 0.00 | 0.00 | 0.00 | 80 | 1014.1 |
| 20260505210029 | 10 | 360 | 4.8 | 16.1 | 0.00 | 0.00 | 0.00 | 80 | 1014.0 |
| 20260505205509 | 10 | 360 | 4.8 | 19.3 | 0.00 | 0.00 | 0.00 | 80 | 1014.0 |
| 20260505205012 | 10 | 360 | 4.8 | 19.3 | 0.00 | 0.00 | 0.00 | 80 | 1014.0 |
| 20260505204532 | 10 | 360 | 6.4 | 17.7 | 0.00 | 0.00 | 0.00 | 79 | 1014.0 |
| 20260505204008 | 10 | 360 | 8.0 | 19.3 | 0.00 | 0.00 | 0.00 | 79 | 1013.9 |
| 20260505203508 | 10 | 360 | 8.0 | 19.3 | 0.00 | 0.00 | 0.00 | 79 | 1014.0 |
| 20260505203033 | 10 | 360 | 8.0 | 17.7 | 0.00 | 0.00 | 0.00 | 79 | 1013.9 |
| 20260505202509 | 10 | 360 | 8.0 | 17.7 | 0.00 | 0.00 | 0.00 | 79 | 1013.9 |
| 20260505202009 | 10 | 360 | 4.8 | 14.5 | 0.00 | 0.00 | 0.00 | 79 | 1013.8 |
| 20260505201534 | 10 | 360 | 6.4 | 14.5 | 0.00 | 0.00 | 0.00 | 79 | 1013.8 |
| 20260505201011 | 10 | 360 | 4.8 | 14.5 | 0.00 | 0.00 | 0.00 | 78 | 1013.7 |
| 20260505200509 | 10 | 360 | 6.4 | 14.5 | 0.00 | 0.00 | 0.00 | 78 | 1013.7 |
| 20260505200030 | 10 | 360 | 6.4 | 14.5 | 0.00 | 0.00 | 0.00 | 78 | 1013.7 |
| 20260505195514 | 10 | 360 | 6.4 | 17.7 | 0.00 | 0.00 | 0.00 | 78 | 1013.6 |
| 20260505195009 | 10 | 360 | 4.8 | 17.7 | 0.00 | 0.00 | 0.00 | 77 | 1013.6 |
| 20260505194529 | 10 | 360 | 8.0 | 17.7 | 0.00 | 0.00 | 0.00 | 77 | 1013.5 |
| 20260505194011 | 10 | 360 | 9.7 | 17.7 | 0.00 | 0.00 | 0.00 | 77 | 1013.4 |
| 20260505193509 | 10 | 360 | 8.0 | 17.7 | 0.00 | 0.00 | 0.00 | 77 | 1013.4 |
| 20260505193030 | 10 | 360 | 9.7 | 20.9 | 0.00 | 0.00 | 0.00 | 78 | 1013.4 |
| 20260505192508 | 11 | 360 | 6.4 | 20.9 | 0.00 | 0.00 | 0.00 | 77 | 1013.4 |
| 20260505192007 | 11 | 360 | 6.4 | 19.3 | 0.00 | 0.00 | 0.00 | 76 | 1013.4 |
| 20260505191527 | 11 | 360 | 9.7 | 19.3 | 0.00 | 0.00 | 0.00 | 75 | 1013.2 |
| 20260505191011 | 11 | 360 | 8.0 | 22.5 | 0.00 | 0.00 | 0.00 | 72 | 1013.3 |
| 20260505190512 | 12 | 360 | 9.7 | 22.5 | 0.00 | 0.00 | 0.00 | 69 | 1013.1 |
| 20260505190038 | 12 | 360 | 4.8 | 14.5 | 0.00 | 0.00 | 0.00 | 65 | 1013.1 |
| 20260505185509 | 12 | 360 | 4.8 | 14.5 | 0.00 | 0.00 | 0.00 | 65 | 1013.0 |
| 20260505185012 | 12 | 360 | 3.2 | 14.5 | 0.00 | 0.00 | 0.00 | 65 | 1012.9 |
| 20260505184532 | 12 | 360 | 4.8 | 12.9 | 0.00 | 0.00 | 0.00 | 64 | 1012.9 |
| 20260505184010 | 12 | 360 | 4.8 | 12.9 | 0.00 | 0.00 | 0.00 | 64 | 1012.9 |
| 20260505183510 | 12 | 360 | 3.2 | 12.9 | 0.00 | 0.00 | 0.00 | 64 | 1012.9 |
| 20260505183029 | 12 | 360 | 3.2 | 12.9 | 0.00 | 0.00 | 0.00 | 65 | 1012.9 |
| 20260505182510 | 12 | 360 | 3.2 | 12.9 | 0.00 | 0.00 | 0.00 | 65 | 1012.8 |
| 20260505182011 | 12 | 360 | 4.8 | 14.5 | 0.00 | 0.00 | 0.00 | 64 | 1012.8 |
| 20260505181529 | 12 | 360 | 3.2 | 14.5 | 0.00 | 0.00 | 0.00 | 64 | 1012.8 |
| 20260505181008 | 12 | 360 | 4.8 | 16.1 | 0.00 | 0.00 | 0.00 | 64 | 1012.8 |
| 20260505180510 | 12 | 360 | 4.8 | 17.7 | 0.00 | 0.00 | 0.00 | 63 | 1012.8 |
| 20260505180036 | 12 | 360 | 6.4 | 17.7 | 0.00 | 0.00 | 0.00 | 62 | 1012.8 |
| 20260505175510 | 13 | 360 | 3.2 | 14.5 | 0.00 | 0.00 | 0.00 | 62 | 1012.9 |
| 20260505175008 | 13 | 360 | 3.2 | 9.7 | 0.00 | 0.00 | 0.00 | 62 | 1012.8 |
| 20260505174528 | 13 | 360 | 4.8 | 12.9 | 0.00 | 0.00 | 0.00 | 62 | 1012.8 |
| 20260505174010 | 13 | 360 | 3.2 | 14.5 | 0.00 | 0.00 | 0.00 | 62 | 1012.8 |
| 20260505173511 | 13 | 360 | 4.8 | 14.5 | 0.00 | 0.00 | 0.00 | 61 | 1012.8 |
| 20260505173029 | 13 | 360 | 3.2 | 19.3 | 0.00 | 0.00 | 0.00 | 61 | 1012.8 |
| 20260505172511 | 13 | 360 | 4.8 | 19.3 | 0.00 | 0.00 | 0.00 | 60 | 1012.8 |
| 20260505172009 | 13 | 360 | 4.8 | 14.5 | 0.00 | 0.00 | 0.00 | 60 | 1012.9 |
| 20260505171529 | 13 | 360 | 3.2 | 9.7 | 0.00 | 0.00 | 0.00 | 61 | 1012.8 |
| 20260505171013 | 13 | 360 | 1.6 | 9.7 | 0.00 | 0.00 | 0.00 | 62 | 1012.9 |
| 20260505170510 | 13 | 360 | 3.2 | 14.5 | 0.00 | 0.00 | 0.00 | 63 | 1012.9 |
| 20260505170031 | 13 | 360 | 1.6 | 14.5 | 0.00 | 0.00 | 0.00 | 62 | 1012.9 |
| 20260505165510 | 13 | 360 | 4.8 | 14.5 | 0.00 | 0.00 | 0.00 | 62 | 1012.9 |
| 20260505165008 | 13 | 360 | 4.8 | 14.5 | 0.00 | 0.00 | 0.00 | 62 | 1012.8 |
| 20260505164526 | 13 | 360 | 3.2 | 16.1 | 0.00 | 0.00 | 0.00 | 62 | 1012.8 |
| 20260505164010 | 13 | 360 | 4.8 | 16.1 | 0.00 | 0.00 | 0.00 | 61 | 1012.9 |
| 20260505163509 | 13 | 360 | 6.4 | 16.1 | 0.00 | 0.00 | 0.00 | 60 | 1012.9 |
| 20260505163036 | 13 | 360 | 3.2 | 12.9 | 0.00 | 0.00 | 0.00 | 60 | 1012.8 |
| 20260505162509 | 13 | 360 | 4.8 | 12.9 | 0.00 | 0.00 | 0.00 | 61 | 1012.9 |
| 20260505162013 | 13 | 360 | 4.8 | 9.7 | 0.00 | 0.00 | 0.00 | 61 | 1012.8 |
| 20260505161528 | 13 | 360 | 4.8 | 12.9 | 0.00 | 0.00 | 0.00 | 61 | 1012.8 |
| 20260505161009 | 13 | 360 | 3.2 | 12.9 | 0.00 | 0.00 | 0.00 | 62 | 1012.8 |
| 20260505160510 | 13 | 360 | 4.8 | 12.9 | 0.00 | 0.00 | 0.00 | 61 | 1012.9 |
| 20260505153039 | 13 | 360 | 3.2 | 16.1 | 0.00 | 0.00 | 0.00 | 61 | 1013.1 |
| 20260505152509 | 13 | 360 | 3.2 | 12.9 | 0.00 | 0.00 | 0.00 | 61 | 1013.1 |
| 20260505152013 | 13 | 360 | 4.8 | 12.9 | 0.00 | 0.00 | 0.00 | 61 | 1013.0 |
| 20260505151530 | 13 | 360 | 4.8 | 9.7 | 0.00 | 0.00 | 0.00 | 61 | 1013.0 |
| 20260505151009 | 13 | 360 | 4.8 | 8.0 | 0.00 | 0.00 | 0.00 | 61 | 1013.0 |
| 20260505150511 | 13 | 360 | 3.2 | 12.9 | 0.00 | 0.00 | 0.00 | 61 | 1013.1 |
| 20260505140510 | 13 | 360 | 6.4 | 17.7 | 0.00 | 0.00 | 0.00 | 61 | 1013.1 |
| 20260505125015 | 13 | 360 | 4.8 | 17.7 | 0.00 | 0.00 | 0.00 | 62 | 1013.1 |
| 20260505124530 | 13 | 360 | 8.0 | 17.7 | 0.00 | 0.00 | 0.00 | 61 | 1013.1 |
| 20260505124012 | 13 | 360 | 4.8 | 17.7 | 0.00 | 0.00 | 0.00 | 62 | 1013.1 |
| 20260505123511 | 13 | 360 | 4.8 | 17.7 | 0.00 | 0.00 | 0.00 | 62 | 1013.2 |
| 20260505123028 | 13 | 360 | 4.8 | 14.5 | 0.00 | 0.00 | 0.00 | 62 | 1013.1 |
| 20260505122509 | 13 | 360 | 4.8 | 14.5 | 0.00 | 0.00 | 0.00 | 62 | 1013.1 |
| 20260505122011 | 13 | 360 | 6.4 | 16.1 | 0.00 | 0.00 | 0.00 | 62 | 1013.1 |
| 20260505121532 | 13 | 360 | 4.8 | 16.1 | 0.00 | 0.00 | 0.00 | 62 | 1013.1 |
| 20260505121009 | 13 | 360 | 6.4 | 16.1 | 0.00 | 0.00 | 0.00 | 61 | 1013.2 |
| 20260505120510 | 13 | 360 | 4.8 | 16.1 | 0.00 | 0.00 | 0.00 | 61 | 1013.1 |
| 20260505120040 | 13 | 360 | 4.8 | 16.1 | 0.00 | 0.00 | 0.00 | 61 | 1013.1 |
| 20260505115510 | 13 | 360 | 6.4 | 14.5 | 0.00 | 0.00 | 0.00 | 60 | 1013.1 |
| 20260505115009 | 14 | 360 | 3.2 | 14.5 | 0.00 | 0.00 | 0.00 | 60 | 1013.1 |
| 20260505114529 | 14 | 360 | 4.8 | 16.1 | 0.00 | 0.00 | 0.00 | 58 | 1013.0 |
| 20260505114009 | 15 | 360 | 4.8 | 16.1 | 0.00 | 0.00 | 0.00 | 58 | 1013.1 |
| 20260505113511 | 15 | 360 | 4.8 | 16.1 | 0.00 | 0.00 | 0.00 | 58 | 1013.1 |
| 20260505113028 | 15 | 360 | 4.8 | 16.1 | 0.00 | 0.00 | 0.00 | 59 | 1013.2 |
| 20260505112508 | 14 | 360 | 6.4 | 14.5 | 0.00 | 0.00 | 0.00 | 60 | 1013.1 |
| 20260505112008 | 14 | 360 | 1.6 | 16.1 | 0.00 | 0.00 | 0.00 | 63 | 1013.2 |
| 20260505111532 | 13 | 360 | 4.8 | 17.7 | 0.00 | 0.00 | 0.00 | 63 | 1013.2 |
| 20260505111008 | 13 | 360 | 4.8 | 17.7 | 0.00 | 0.00 | 0.00 | 61 | 1013.2 |
| 20260505110511 | 14 | 360 | 8.0 | 19.3 | 0.00 | 0.00 | 0.00 | 60 | 1013.3 |
| 20260505102010 | 13 | 360 | 4.8 | 12.9 | 0.00 | 0.00 | 0.00 | 64 | 1013.8 |
| 20260505101533 | 13 | 360 | 3.2 | 12.9 | 0.00 | 0.00 | 0.00 | 64 | 1013.8 |
| 20260505101011 | 13 | 360 | 3.2 | 12.9 | 0.00 | 0.00 | 0.00 | 66 | 1013.7 |
| 20260505100513 | 12 | 360 | 4.8 | 12.9 | 0.00 | 0.00 | 0.00 | 64 | 1013.7 |
| 20260505100031 | 13 | 360 | 4.8 | 12.9 | 0.00 | 0.00 | 0.00 | 66 | 1013.7 |
| 20260505095509 | 12 | 360 | 1.6 | 9.7 | 0.00 | 0.00 | 0.00 | 68 | 1013.7 |
| 20260505095009 | 12 | 360 | 3.2 | 9.7 | 0.00 | 0.00 | 0.00 | 68 | 1013.8 |
| 20260505094530 | 12 | 360 | 3.2 | 8.0 | 0.00 | 0.00 | 0.00 | 68 | 1013.7 |
| 20260505094012 | 12 | 360 | 1.6 | 9.7 | 0.00 | 0.00 | 0.00 | 68 | 1013.8 |
| 20260505093507 | 12 | 360 | 3.2 | 12.9 | 0.00 | 0.00 | 0.00 | 68 | 1013.9 |
| 20260505093030 | 12 | 360 | 3.2 | 12.9 | 0.00 | 0.00 | 0.00 | 69 | 1013.8 |
| 20260505092513 | 12 | 360 | 3.2 | 12.9 | 0.00 | 0.00 | 0.00 | 69 | 1013.8 |
| 20260505092010 | 12 | 360 | 3.2 | 14.5 | 0.00 | 0.00 | 0.00 | 69 | 1013.8 |
| 20260505091532 | 12 | 360 | 3.2 | 14.5 | 0.00 | 0.00 | 0.00 | 71 | 1013.8 |
| 20260505091009 | 12 | 360 | 4.8 | 14.5 | 0.00 | 0.00 | 0.00 | 71 | 1013.6 |
| 20260505090510 | 12 | 360 | 3.2 | 14.5 | 0.00 | 0.00 | 0.00 | 72 | 1013.7 |
| 20260505090031 | 12 | 360 | 4.8 | 16.1 | 0.00 | 0.00 | 0.00 | 72 | 1013.8 |
| 20260505085510 | 12 | 360 | 4.8 | 16.1 | 0.00 | 0.00 | 0.00 | 73 | 1013.8 |
| 20260505085009 | 12 | 360 | 3.2 | 16.1 | 0.00 | 0.00 | 0.00 | 73 | 1013.8 |
| 20260505084543 | 12 | 360 | 3.2 | 14.5 | 0.00 | 0.00 | 0.00 | 73 | 1013.9 |
| 20260505084012 | 12 | 360 | 6.4 | 14.5 | 0.00 | 0.00 | 0.00 | 71 | 1013.9 |
| 20260505083509 | 12 | 360 | 1.6 | 9.7 | 0.00 | 0.00 | 0.00 | 72 | 1013.8 |
| 20260505083043 | 12 | 360 | 3.2 | 12.9 | 0.00 | 0.00 | 0.00 | 72 | 1013.9 |
| 20260505082512 | 12 | 360 | 4.8 | 16.1 | 0.00 | 0.00 | 0.00 | 71 | 1013.9 |
| 20260505082013 | 12 | 360 | 3.2 | 16.1 | 0.00 | 0.00 | 0.00 | 72 | 1013.9 |
| 20260505081537 | 11 | 360 | 6.4 | 14.5 | 0.00 | 0.00 | 0.00 | 71 | 1013.8 |
| 20260505081015 | 11 | 360 | 3.2 | 14.5 | 0.00 | 0.00 | 0.00 | 72 | 1013.9 |
| 20260505080512 | 11 | 360 | 4.8 | 17.7 | 0.00 | 0.00 | 0.00 | 73 | 1013.9 |
| 20260505080040 | 11 | 360 | 6.4 | 17.7 | 0.00 | 0.00 | 0.00 | 74 | 1013.9 |
| 20260505075509 | 11 | 360 | 3.2 | 12.9 | 0.00 | 0.00 | 0.00 | 73 | 1013.9 |
| 20260505075011 | 11 | 360 | 4.8 | 12.9 | 0.00 | 0.00 | 0.00 | 73 | 1014.0 |
| 20260505074529 | 11 | 360 | 4.8 | 12.9 | 0.00 | 0.00 | 0.00 | 73 | 1013.9 |
| 20260505074012 | 11 | 360 | 1.6 | 12.9 | 0.00 | 0.00 | 0.00 | 74 | 1013.9 |
| 20260505073512 | 11 | 360 | 4.8 | 12.9 | 0.00 | 0.00 | 0.00 | 75 | 1013.8 |
| 20260505073040 | 11 | 360 | 4.8 | 12.9 | 0.00 | 0.00 | 0.00 | 76 | 1013.8 |
| 20260505072513 | 10 | 360 | 4.8 | 12.9 | 0.00 | 0.00 | 0.00 | 77 | 1013.8 |
| 20260505072011 | 10 | 360 | 4.8 | 12.9 | 0.00 | 0.00 | 0.00 | 78 | 1013.8 |
| 20260505071542 | 10 | 360 | 3.2 | 14.5 | 0.00 | 0.00 | 0.00 | 79 | 1013.9 |
| 20260505071011 | 10 | 360 | 4.8 | 14.5 | 0.00 | 0.00 | 0.00 | 79 | 1013.9 |
| 20260505070515 | 10 | 360 | 3.2 | 9.7 | 0.00 | 0.00 | 0.00 | 80 | 1013.9 |
| 20260505070039 | 10 | 360 | 3.2 | 9.7 | 0.00 | 0.00 | 0.00 | 81 | 1014.2 |
| 20260505065510 | 9 | 360 | 3.2 | 12.9 | 0.00 | 0.00 | 0.00 | 82 | 1014.0 |
| 20260505065011 | 9 | 17 | 1.6 | 12.9 | 0.00 | 0.00 | 0.00 | 81 | 1014.1 |
| 20260505064534 | 10 | 360 | 3.2 | 12.9 | 0.00 | 0.00 | 0.00 | 81 | 1014.0 |
| 20260505064011 | 9 | 360 | 3.2 | 9.7 | 0.00 | 0.00 | 0.00 | 82 | 1014.0 |
| 20260505063509 | 9 | 360 | 3.2 | 12.9 | 0.00 | 0.00 | 0.00 | 83 | 1014.0 |
| 20260505063036 | 9 | 360 | 3.2 | 12.9 | 0.00 | 0.00 | 0.00 | 83 | 1014.1 |
| 20260505062512 | 9 | 0 | 3.2 | 9.7 | 0.00 | 0.00 | 0.00 | 84 | 1014.0 |
| 20260505062013 | 8 | 360 | 3.2 | 9.7 | 0.00 | 0.00 | 0.00 | 84 | 1014.1 |
| 20260505061531 | 8 | 360 | 3.2 | 9.7 | 0.00 | 0.00 | 0.00 | 84 | 1014.0 |
| 20260505061010 | 8 | 360 | 1.6 | 9.7 | 0.00 | 0.00 | 0.00 | 85 | 1014.0 |
| 20260505060514 | 8 | 360 | 3.2 | 9.7 | 0.00 | 0.00 | 0.00 | 85 | 1013.9 |
| 20260505060050 | 8 | 0 | 1.6 | 9.7 | 0.00 | 0.00 | 0.00 | 86 | 1013.9 |
| 20260505055513 | 8 | 360 | 1.6 | 9.7 | 0.00 | 0.00 | 0.00 | 86 | 1013.9 |
| 20260505055014 | 8 | 360 | 3.2 | 9.7 | 0.00 | 0.00 | 0.00 | 86 | 1014.0 |
| 20260505054531 | 7 | 360 | 1.6 | 9.7 | 0.00 | 0.00 | 0.00 | 87 | 1014.0 |
| 20260505054015 | 7 | 360 | 1.6 | 9.7 | 0.00 | 0.00 | 0.00 | 87 | 1013.8 |
| 20260505053514 | 7 | 360 | 3.2 | 9.7 | 0.00 | 0.00 | 0.00 | 87 | 1013.9 |
| 20260505053029 | 7 | 360 | 3.2 | 8.0 | 0.00 | 0.00 | 0.00 | 87 | 1014.0 |
| 20260505052509 | 7 | 360 | 3.2 | 8.0 | 0.00 | 0.00 | 0.00 | 87 | 1014.0 |
| 20260505052011 | 7 | 360 | 3.2 | 8.0 | 0.00 | 0.00 | 0.00 | 87 | 1014.0 |
| 20260505051528 | 7 | 360 | 1.6 | 12.9 | 0.00 | 0.00 | 0.00 | 86 | 1013.9 |
| 20260505051010 | 7 | 360 | 3.2 | 12.9 | 0.00 | 0.00 | 0.00 | 86 | 1014.0 |
| 20260505050510 | 7 | 360 | 4.8 | 9.7 | 0.00 | 0.00 | 0.00 | 86 | 1013.9 |
| 20260505041537 | 7 | 360 | 1.6 | 8.0 | 0.00 | 0.00 | 0.00 | 86 | 1013.7 |
| 20260505041012 | 7 | 360 | 1.6 | 8.0 | 0.00 | 0.00 | 0.00 | 87 | 1013.7 |
| 20260505040517 | 7 | 360 | 3.2 | 8.0 | 0.00 | 0.00 | 0.00 | 87 | 1013.7 |
| 20260505040027 | 7 | 360 | 3.2 | 8.0 | 0.00 | 0.00 | 0.00 | 87 | 1013.6 |
| 20260505035510 | 7 | 360 | 1.6 | 8.0 | 0.00 | 0.00 | 0.00 | 86 | 1013.7 |
| 20260505035015 | 7 | 360 | 1.6 | 14.5 | 0.00 | 0.00 | 0.00 | 86 | 1013.6 |
| 20260505034528 | 7 | 360 | 3.2 | 14.5 | 0.00 | 0.00 | 0.00 | 86 | 1013.6 |
| 20260505034013 | 7 | 360 | 1.6 | 8.0 | 0.00 | 0.00 | 0.00 | 86 | 1013.6 |
| 20260505033510 | 7 | 0 | 1.6 | 6.4 | 0.00 | 0.00 | 0.00 | 86 | 1013.7 |
| 20260505033026 | 7 | 360 | 0.0 | 6.4 | 0.00 | 0.00 | 0.00 | 86 | 1013.8 |
| 20260505032511 | 7 | 360 | 1.6 | 6.4 | 0.00 | 0.00 | 0.00 | 86 | 1013.7 |
| 20260505032013 | 7 | 360 | 1.6 | 12.9 | 0.00 | 0.00 | 0.00 | 86 | 1013.9 |
| 20260505031527 | 7 | 360 | 0.0 | 12.9 | 0.00 | 0.00 | 0.00 | 86 | 1013.8 |
| 20260505031009 | 7 | 360 | 1.6 | 9.7 | 0.00 | 0.00 | 0.00 | 86 | 1013.9 |
| 20260505030509 | 7 | 360 | 1.6 | 9.7 | 0.00 | 0.00 | 0.00 | 87 | 1013.7 |
| 20260505030028 | 7 | 360 | 1.6 | 9.7 | 0.00 | 0.00 | 0.00 | 87 | 1013.8 |
| 20260505025515 | 7 | 0 | 1.6 | 6.4 | 0.00 | 0.00 | 0.00 | 87 | 1013.9 |
| 20260505025010 | 7 | 360 | 1.6 | 6.4 | 0.00 | 0.00 | 0.00 | 88 | 1013.8 |
| 20260505024528 | 8 | 360 | 1.6 | 6.4 | 0.00 | 0.00 | 0.00 | 88 | 1013.8 |
| 20260505024015 | 8 | 360 | 1.6 | 6.4 | 0.00 | 0.00 | 0.00 | 88 | 1013.8 |
| 20260505023511 | 8 | 360 | 1.6 | 6.4 | 0.00 | 0.00 | 0.00 | 88 | 1013.9 |
| 20260505023030 | 8 | 360 | 1.6 | 6.4 | 0.00 | 0.00 | 0.00 | 88 | 1013.9 |
| 20260505022511 | 8 | 360 | 1.6 | 9.7 | 0.00 | 0.00 | 0.00 | 89 | 1013.9 |
| 20260505022014 | 8 | 360 | 1.6 | 9.7 | 0.00 | 0.00 | 0.00 | 89 | 1013.9 |
| 20260505021531 | 8 | 0 | 1.6 | 8.0 | 0.00 | 0.00 | 0.00 | 89 | 1013.9 |
| 20260505021010 | 8 | 0 | 0.0 | 4.8 | 0.00 | 0.00 | 0.00 | 89 | 1013.9 |
| 20260505020510 | 9 | 0 | 0.0 | 4.8 | 0.00 | 0.00 | 0.00 | 89 | 1013.9 |
| 20260505020038 | 9 | 0 | 1.6 | 4.8 | 0.00 | 0.00 | 0.00 | 89 | 1013.9 |
| 20260505015509 | 9 | 0 | 0.0 | 0.0 | 0.00 | 0.00 | 0.00 | 90 | 1014.0 |
| 20260505015010 | 9 | 0 | 0.0 | 4.8 | 0.00 | 0.00 | 0.00 | 90 | 1014.0 |
| 20260505014541 | 9 | 0 | 0.0 | 4.8 | 0.00 | 0.00 | 0.00 | 90 | 1014.0 |
| 20260505014011 | 9 | 0 | 0.0 | 6.4 | 0.00 | 0.00 | 0.00 | 91 | 1014.2 |
| 20260505013513 | 9 | 360 | 0.0 | 6.4 | 0.00 | 0.00 | 0.00 | 91 | 1014.1 |
| 20260505013037 | 9 | 0 | 1.6 | 6.4 | 0.00 | 0.00 | 0.00 | 91 | 1014.3 |
| 20260505012514 | 9 | 0 | 0.0 | 4.8 | 0.00 | 0.00 | 0.00 | 92 | 1014.3 |
| 20260505012013 | 9 | 0 | 0.0 | 1.6 | 0.00 | 0.00 | 0.00 | 92 | 1014.5 |
| 20260505011536 | 9 | 0 | 0.0 | 3.2 | 0.00 | 0.00 | 0.00 | 92 | 1014.4 |
| 20260505011011 | 9 | 0 | 0.0 | 3.2 | 0.00 | 0.00 | 0.00 | 92 | 1014.4 |
| 20260505010511 | 9 | 0 | 0.0 | 0.0 | 0.00 | 0.00 | 0.00 | 91 | 1014.4 |
| 20260505010031 | 8 | 0 | 0.0 | 1.6 | 0.00 | 0.00 | 0.00 | 91 | 1014.5 |
| 20260505005509 | 8 | 0 | 0.0 | 1.6 | 0.00 | 0.00 | 0.00 | 91 | 1014.5 |
| 20260505005012 | 8 | 360 | 0.0 | 3.2 | 0.00 | 0.00 | 0.00 | 91 | 1014.4 |
| 20260505004540 | 8 | 0 | 0.0 | 3.2 | 0.00 | 0.00 | 0.00 | 91 | 1014.4 |
| 20260505004009 | 8 | 360 | 0.0 | 3.2 | 0.00 | 0.00 | 0.00 | 92 | 1014.7 |
| 20260505003511 | 8 | 0 | 0.0 | 3.2 | 0.00 | 0.00 | 0.00 | 92 | 1014.7 |
| 20260505003049 | 8 | 0 | 0.0 | 1.6 | 0.00 | 0.00 | 0.00 | 92 | 1014.7 |
| 20260505002513 | 8 | 0 | 0.0 | 0.0 | 0.00 | 0.00 | 0.00 | 91 | 1014.9 |
| 20260505002008 | 8 | 0 | 0.0 | 1.6 | 0.00 | 0.00 | 0.00 | 92 | 1014.9 |
| 20260505001530 | 8 | 0 | 0.0 | 1.6 | 0.00 | 0.00 | 0.00 | 92 | 1014.8 |
| 20260505001010 | 8 | 0 | 0.0 | 1.6 | 0.00 | 0.00 | 0.00 | 92 | 1014.8 |
| 20260505000512 | 8 | 0 | 0.0 | 1.6 | 0.00 | 0.00 | 0.00 | 91 | 1014.8 |
| 20260505000033 | 8 | 0 | 0.0 | 3.2 | 0.00 | 0.00 | 0.00 | 91 | 1014.9 |
| 20260504235510 | 8 | 0 | 0.0 | 3.2 | 0.00 | 0.00 | 0.00 | 91 | 1014.9 |
| 20260504235012 | 8 | 0 | 0.0 | 0.0 | 0.00 | 0.00 | 0.00 | 91 | 1015.0 |
| 20260504234531 | 8 | 0 | 0.0 | 0.0 | 0.00 | 0.00 | 0.00 | 91 | 1015.0 |
| 20260504234011 | 8 | 0 | 0.0 | 0.0 | 0.00 | 0.00 | 0.00 | 91 | 1015.0 |
| 20260504233508 | 7 | 0 | 0.0 | 0.0 | 0.00 | 0.00 | 0.00 | 91 | 1015.0 |
| 20260504233035 | 7 | 0 | 0.0 | 0.0 | 0.00 | 0.00 | 0.00 | 91 | 1015.0 |
| 20260504232517 | 7 | 0 | 0.0 | 0.0 | 0.00 | 0.00 | 0.00 | 91 | 1015.0 |
| 20260504232012 | 7 | 0 | 0.0 | 0.0 | 0.00 | 0.00 | 0.00 | 91 | 1015.0 |
| 20260504231528 | 7 | 0 | 0.0 | 0.0 | 0.00 | 0.00 | 0.00 | 90 | 1015.0 |
| 20260504231010 | 7 | 0 | 0.0 | 0.0 | 0.00 | 0.00 | 0.00 | 90 | 1015.1 |
| 20260504230514 | 7 | 0 | 0.0 | 0.0 | 0.00 | 0.00 | 0.00 | 90 | 1015.1 |
| 20260504230030 | 8 | 0 | 0.0 | 1.6 | 0.00 | 0.00 | 0.00 | 90 | 1015.0 |
| 20260504225510 | 8 | 0 | 0.0 | 1.6 | 0.00 | 0.00 | 0.00 | 90 | 1015.1 |
| 20260504225009 | 8 | 0 | 0.0 | 1.6 | 0.00 | 0.00 | 0.00 | 90 | 1015.1 |
| 20260504224529 | 8 | 0 | 0.0 | 1.6 | 0.00 | 0.00 | 0.00 | 89 | 1015.1 |
| 20260504224011 | 8 | 0 | 0.0 | 1.6 | 0.00 | 0.00 | 0.00 | 90 | 1015.1 |
| 20260504223512 | 8 | 0 | 0.0 | 1.6 | 0.00 | 0.00 | 0.00 | 89 | 1015.3 |
| 20260504223032 | 8 | 0 | 0.0 | 1.6 | 0.00 | 0.00 | 0.00 | 89 | 1015.3 |
| 20260504222513 | 8 | 0 | 0.0 | 1.6 | 0.00 | 0.00 | 0.00 | 89 | 1015.3 |
| 20260504222012 | 8 | 0 | 0.0 | 1.6 | 0.00 | 0.00 | 0.00 | 88 | 1015.4 |
| 20260504221530 | 8 | 360 | 0.0 | 1.6 | 0.00 | 0.00 | 0.00 | 88 | 1015.4 |
| 20260504221011 | 8 | 0 | 0.0 | 0.0 | 0.00 | 0.00 | 0.00 | 87 | 1015.4 |
| 20260504220511 | 8 | 0 | 0.0 | 0.0 | 0.00 | 0.00 | 0.00 | 87 | 1015.4 |
| 20260504220031 | 9 | 0 | 0.0 | 0.0 | 0.00 | 0.00 | 0.00 | 86 | 1015.5 |
| 20260504215511 | 9 | 0 | 0.0 | 0.0 | 0.00 | 0.00 | 0.00 | 86 | 1015.4 |
| 20260504215014 | 9 | 0 | 0.0 | 0.0 | 0.00 | 0.00 | 0.00 | 86 | 1015.4 |
| 20260504214532 | 10 | 0 | 0.0 | 0.0 | 0.00 | 0.00 | 0.00 | 86 | 1015.4 |
| 20260504214013 | 10 | 0 | 0.0 | 0.0 | 0.00 | 0.00 | 0.00 | 85 | 1015.4 |
| 20260504213511 | 10 | 0 | 0.0 | 0.0 | 0.00 | 0.00 | 0.00 | 85 | 1015.4 |
| 20260504213030 | 10 | 0 | 0.0 | 0.0 | 0.00 | 0.00 | 0.00 | 84 | 1015.3 |
| 20260504212512 | 10 | 0 | 0.0 | 0.0 | 0.00 | 0.00 | 0.00 | 84 | 1015.3 |